sat.trackr.live / text

‹ back to catalog

STARLINK-35220

NORAD 65661 · 2025-211K

PAYLOAD ACTIVE UNKNOWN

§ Identity

Operator
Country
US
Launch date
2025-09-19
Launch site
AFWTR
Launch vehicle
Mass (kg)
RCS (m²)

Purposes: comms

External: N2YO · Heavens-Above · Gunter

§ Orbital elements

Epoch: 2026-05-25T03:03:11.445120Z

Period
95.64 min
Inclination
97.4491°
Eccentricity
0.0002116
Mean motion
15.05655201 rev/d
Perigee alt
548.0 km
Apogee alt
551.0 km
Semi-major
6,927.6 km
B*
2.7076e-4
RAAN
189.0461°
Arg perigee
115.3905°
Mean anomaly
244.7542°
Rev number
3,854

§ Raw data

STARLINK-352201 65661U 25211K   26145.12721580  .00003851  00000+0  27076-3 0  99902 65661  97.4491 189.0461 0002116 115.3905 244.7542 15.05655201 38541

JSON: /api/v1/satellites/65661 · /tle

For live sub-satellite position, see the globe view (requires WebGL).

§ Visibility from observer

Set your observer location to see the next 7 days of passes ≥ 10°. The values pass through the URL so the page stays shareable.

No JS? Fill the form by hand. The geolocation button needs JavaScript.